When you browse on this site, cookies collect data to enhance your experience and personalize the content and advertising you see.
Visit our Privacy Policy to learn more. By continuing to use the site, you agree to this use of cookies and data.
  • In Schweiz
  • Länderverzeichnis
  • Für 7 Tage
  • Wassertemperatur
  • Wetterkarte
  • Widgets
  • user-avatar
    Anmelden

    Stündliche Wetter Birmingem

    Heute, 9 Dezember, Montag

    Zeit Temperatur Niederschläge Wind Luftdruck Luftfeuchtigkeit
    00:00 +13°C° 0 mm 5 m/S 743 mmHg 81%
    01:00 +14°C° 0.1 mm 4 m/S 742 mmHg 83%
    02:00 +14°C° 0.1 mm 4 m/S 742 mmHg 86%
    03:00 +14°C° 0.1 mm 4 m/S 741 mmHg 88%
    04:00 +14°C° 0 mm 4 m/S 741 mmHg 90%
    05:00 +15°C° 0 mm 4 m/S 741 mmHg 92%
    06:00 +16°C° 0 mm 3 m/S 741 mmHg 87%
    07:00 +15°C° 0 mm 4 m/S 741 mmHg 87%
    08:00 +17°C° 0 mm 4 m/S 741 mmHg 87%
    09:00 +17°C° 0 mm 4 m/S 741 mmHg 87%
    10:00 +17°C° 0 mm 5 m/S 741 mmHg 80%
    11:00 +20°C° 0 mm 5 m/S 740 mmHg 73%
    12:00 +21°C° 0 mm 5 m/S 740 mmHg 66%
    13:00 +20°C° 0 mm 5 m/S 740 mmHg 71%
    14:00 +19°C° 0 mm 4 m/S 739 mmHg 76%
    15:00 +19°C° 0 mm 4 m/S 739 mmHg 81%
    16:00 +19°C° 0.1 mm 4 m/S 739 mmHg 84%
    17:00 +19°C° 0.1 mm 4 m/S 740 mmHg 86%
    18:00 +19°C° 0.1 mm 3 m/S 741 mmHg 89%
    19:00 +19°C° 0.1 mm 3 m/S 741 mmHg 89%
    20:00 +19°C° 0.1 mm 3 m/S 741 mmHg 90%
    21:00 +19°C° 0.1 mm 3 m/S 741 mmHg 91%
    22:00 +19°C° 0.4 mm 3 m/S 740 mmHg 92%
    23:00 +19°C° 0.4 mm 3 m/S 740 mmHg 94%

    Morgen, 10 Dezember, Dienstag

    Zeit Temperatur Niederschläge Wind Luftdruck Luftfeuchtigkeit
    00:00 +19°C° 0.4 mm 3 m/S 740 mmHg 95%
    01:00 +19°C° 0.2 mm 3 m/S 740 mmHg 95%
    02:00 +19°C° 0.2 mm 3 m/S 740 mmHg 96%
    03:00 +19°C° 0.2 mm 3 m/S 740 mmHg 96%
    04:00 +19°C° 0.3 mm 3 m/S 740 mmHg 96%
    05:00 +19°C° 0.3 mm 3 m/S 741 mmHg 96%
    06:00 +19°C° 0.3 mm 3 m/S 741 mmHg 96%
    07:00 +17°C° 1.9 mm 4 m/S 742 mmHg 93%
    08:00 +14°C° 1.9 mm 4 m/S 743 mmHg 91%
    09:00 +11°C° 1.9 mm 4 m/S 743 mmHg 88%
    10:00 +10°C° 1 mm 4 m/S 744 mmHg 88%
    11:00 +8°C° 1 mm 4 m/S 744 mmHg 88%
    12:00 +7°C° 1 mm 4 m/S 745 mmHg 88%
    13:00 +6°C° 2.6 mm 4 m/S 745 mmHg 89%
    14:00 +6°C° 2.6 mm 4 m/S 745 mmHg 89%
    15:00 +5°C° 2.6 mm 4 m/S 746 mmHg 90%
    16:00 +5°C° 0.8 mm 4 m/S 746 mmHg 90%
    17:00 +4°C° 0.8 mm 4 m/S 747 mmHg 89%
    18:00 +4°C° 0.8 mm 4 m/S 747 mmHg 89%
    19:00 +3°C° 0.2 mm 4 m/S 748 mmHg 86%
    20:00 +3°C° 0.2 mm 4 m/S 748 mmHg 84%
    21:00 +1°C° 0.2 mm 4 m/S 749 mmHg 82%
    22:00 +1°C° 0.3 mm 4 m/S 749 mmHg 84%
    23:00 +1°C° 0.3 mm 4 m/S 749 mmHg 86%

    übermorgen, 11 Dezember, Mittwoch

    Zeit Temperatur Niederschläge Wind Luftdruck Luftfeuchtigkeit
    00:00 +2°C° 0.3 mm 3 m/S 749 mmHg 88%
    01:00 +2°C° 0.6 mm 3 m/S 749 mmHg 88%
    02:00 +1°C° 0.6 mm 3 m/S 749 mmHg 87%
    03:00 +1°C° 0.6 mm 3 m/S 749 mmHg 87%
    04:00 +1°C° 0 mm 3 m/S 750 mmHg 86%
    05:00 +1°C° 0 mm 3 m/S 750 mmHg 85%
    06:00 +1°C° 0 mm 2 m/S 751 mmHg 84%
    07:00 +1°C° 0 mm 3 m/S 751 mmHg 78%
    08:00 +2°C° 0 mm 3 m/S 752 mmHg 73%
    09:00 +3°C° 0 mm 3 m/S 752 mmHg 67%
    10:00 +5°C° 0 mm 3 m/S 752 mmHg 62%
    11:00 +8°C° 0 mm 3 m/S 752 mmHg 56%
    12:00 +9°C° 0 mm 3 m/S 752 mmHg 51%
    13:00 +10°C° 0 mm 3 m/S 752 mmHg 52%
    14:00 +10°C° 0 mm 3 m/S 752 mmHg 52%
    15:00 +10°C° 0 mm 3 m/S 751 mmHg 52%
    16:00 +9°C° 0 mm 3 m/S 751 mmHg 59%
    17:00 +7°C° 0 mm 2 m/S 752 mmHg 66%
    18:00 +6°C° 0 mm 2 m/S 752 mmHg 74%
    19:00 +5°C° 0 mm 2 m/S 752 mmHg 72%
    20:00 +4°C° 0 mm 3 m/S 752 mmHg 70%
    21:00 +3°C° 0 mm 3 m/S 752 mmHg 69%
    22:00 +3°C° 0 mm 3 m/S 752 mmHg 67%
    23:00 +3°C° 0 mm 3 m/S 752 mmHg 66%

    12 Dezember, Donnerstag

    Zeit Temperatur Niederschläge Wind Luftdruck Luftfeuchtigkeit
    00:00 +2°C° 0 mm 3 m/S 752 mmHg 65%
    01:00 +2°C° 0 mm 3 m/S 752 mmHg 68%
    02:00 +2°C° 0 mm 3 m/S 752 mmHg 71%
    03:00 +2°C° 0 mm 3 m/S 752 mmHg 74%
    04:00 +3°C° 0 mm 3 m/S 752 mmHg 74%
    05:00 +3°C° 0 mm 3 m/S 752 mmHg 74%
    06:00 +3°C° 0 mm 4 m/S 752 mmHg 74%
    07:00 +4°C° 0 mm 4 m/S 752 mmHg 66%
    08:00 +6°C° 0 mm 5 m/S 752 mmHg 58%
    09:00 +7°C° 0 mm 5 m/S 752 mmHg 50%
    10:00 +7°C° 0 mm 5 m/S 752 mmHg 52%
    11:00 +7°C° 0 mm 4 m/S 751 mmHg 54%
    12:00 +7°C° 0 mm 4 m/S 751 mmHg 56%
    13:00 +8°C° 0.1 mm 3 m/S 750 mmHg 59%
    14:00 +7°C° 0.1 mm 3 m/S 750 mmHg 62%
    15:00 +7°C° 0.1 mm 3 m/S 749 mmHg 66%
    16:00 +7°C° 0.2 mm 3 m/S 750 mmHg 70%
    17:00 +5°C° 0.2 mm 3 m/S 750 mmHg 75%
    18:00 +5°C° 0.2 mm 3 m/S 750 mmHg 79%
    19:00 +5°C° 0.2 mm 4 m/S 750 mmHg 82%
    20:00 +5°C° 0.2 mm 4 m/S 749 mmHg 84%
    21:00 +5°C° 0.2 mm 4 m/S 749 mmHg 87%
    22:00 +5°C° 0.2 mm 3 m/S 749 mmHg 88%
    23:00 +7°C° 0.2 mm 3 m/S 748 mmHg 90%

    13 Dezember, Freitag

    Zeit Temperatur Niederschläge Wind Luftdruck Luftfeuchtigkeit
    00:00 +7°C° 0.2 mm 3 m/S 748 mmHg 92%
    01:00 +7°C° 0.2 mm 3 m/S 747 mmHg 92%
    02:00 +7°C° 0.2 mm 3 m/S 747 mmHg 92%
    03:00 +7°C° 0.2 mm 3 m/S 746 mmHg 92%
    04:00 +7°C° 0.1 mm 3 m/S 746 mmHg 92%
    05:00 +7°C° 0.1 mm 3 m/S 746 mmHg 92%
    06:00 +7°C° 0.1 mm 3 m/S 745 mmHg 93%
    07:00 +7°C° 0.3 mm 3 m/S 745 mmHg 92%
    08:00 +8°C° 0.3 mm 2 m/S 745 mmHg 92%
    09:00 +8°C° 0.3 mm 2 m/S 744 mmHg 92%
    10:00 +9°C° 0 mm 2 m/S 743 mmHg 90%
    11:00 +10°C° 0 mm 2 m/S 743 mmHg 89%
    12:00 +12°C° 0 mm 1 m/S 742 mmHg 87%
    13:00 +12°C° 0 mm 1 m/S 741 mmHg 88%
    14:00 +12°C° 0 mm 1 m/S 740 mmHg 88%
    15:00 +12°C° 0 mm 1 m/S 740 mmHg 89%
    16:00 +12°C° 0 mm 1 m/S 740 mmHg 90%
    17:00 +11°C° 0 mm 1 m/S 740 mmHg 92%
    18:00 +10°C° 0 mm 0 m/S 740 mmHg 93%
    19:00 +10°C° 0 mm 0 m/S 740 mmHg 93%
    20:00 +10°C° 0 mm 0 m/S 740 mmHg 94%
    21:00 +10°C° 0 mm 0 m/S 740 mmHg 94%
    22:00 +9°C° 0 mm 0 m/S 739 mmHg 95%
    23:00 +9°C° 0 mm 0 m/S 739 mmHg 96%

    14 Dezember, Samstag

    Zeit Temperatur Niederschläge Wind Luftdruck Luftfeuchtigkeit
    00:00 +8°C° 0 mm 0 m/S 738 mmHg 97%
    01:00 +9°C° 0 mm 0 m/S 738 mmHg 97%
    02:00 +9°C° 0 mm 0 m/S 738 mmHg 97%
    03:00 +9°C° 0 mm 0 m/S 738 mmHg 98%
    04:00 +9°C° 0 mm 0 m/S 738 mmHg 97%
    05:00 +9°C° 0 mm 0 m/S 738 mmHg 97%
    06:00 +9°C° 0 mm 0 m/S 738 mmHg 97%
    07:00 +10°C° 0 mm 0 m/S 738 mmHg 95%
    08:00 +11°C° 0 mm 1 m/S 738 mmHg 92%
    09:00 +12°C° 0 mm 1 m/S 739 mmHg 90%
    10:00 +12°C° 0.1 mm 1 m/S 738 mmHg 87%
    11:00 +13°C° 0.1 mm 1 m/S 738 mmHg 85%
    12:00 +14°C° 0.1 mm 1 m/S 738 mmHg 82%
    13:00 +14°C° 0 mm 1 m/S 737 mmHg 78%
    14:00 +14°C° 0 mm 1 m/S 737 mmHg 75%
    15:00 +14°C° 0 mm 2 m/S 737 mmHg 72%
    16:00 +13°C° 0 mm 2 m/S 738 mmHg 77%
    17:00 +12°C° 0 mm 1 m/S 738 mmHg 82%
    18:00 +11°C° 0 mm 1 m/S 739 mmHg 87%
    19:00 +10°C° 0 mm 1 m/S 739 mmHg 88%
    20:00 +9°C° 0 mm 1 m/S 739 mmHg 89%
    21:00 +9°C° 0 mm 1 m/S 740 mmHg 90%
    22:00 +8°C° 0 mm 1 m/S 740 mmHg 91%
    23:00 +7°C° 0 mm 0 m/S 740 mmHg 91%
    Mehr zeigen